Location: Deep South Regional Star Gaze
(30.9929°N, 90.9586°W)
Time: 14:31:20
(UTC-06:00)

Daily predictions for brighter satellites

Satellite Brightness Start Highest point End
(mag) Time Altitude Azimuth Time Altitude Azimuth Time Altitude Azimuth
Cosmos 1733 Rocket 3.7 17:19:35 10° NNW 17:23:58 63° W 17:28:21 10° S
Meteor 1-25 Rocket 4.5 17:18:34 10° N 17:24:15 52° E 17:29:50 10° SSE
Cosmos 1908 Rocket 3.8 17:20:33 10° N 17:24:43 46° E 17:28:53 10° SSE
Cosmos 1782 3.1 17:21:40 10° SSE 17:25:32 47° E 17:29:23 10° NNE
Cosmos 1464 Rocket 4.4 17:21:19 10° SSE 17:26:55 39° E 17:32:33 10° NNE
CZ-2C R/B 3.8 17:24:59 10° S 17:29:42 45° W 17:34:36 10° NNW
BREEZE-M R/B 4.1 17:28:29 10° N 17:30:45 18° NE 17:33:56 10° E
CZ-2C R/B 3.7 17:27:32 10° NNE 17:32:02 66° ESE 17:36:36 10° S
SJ-7 4.4 17:30:56 10° SSE 17:35:06 83° ENE 17:39:14 10° N
Okean 1-7 3.1 17:33:58 10° S 17:38:14 57° E 17:42:33 10° NNE
Cosmos 304 Rocket 3.9 17:33:57 10° NNW 17:38:45 80° WSW 17:43:30 10° S
GPS 2-05 Rocket1 3.0 17:35:45 10° W 17:38:48 52° NNW 17:41:40 12° ENE
ISS -1.6 17:39:22 10° SSE 17:41:03 13° SE 17:42:42 10° E
Delta 168 4.4 17:38:39 10° SW 17:42:29 35° SSE 17:47:56 10° E
CSL-04 Debris 4.3 17:38:55 10° SSE 17:44:21 85° WSW 17:49:47 10° NNW
OAO 3 Copernicus 4.4 17:40:04 10° WNW 17:45:08 70° NNE 17:50:04 11° E
Meteor 1-27 Rocket 4.4 17:40:24 10° SSE 17:45:44 37° E 17:51:08 10° NNE
Orbus 7S 4.5 17:47:15 10° SW 17:49:34 34° SSE 17:53:10 11° E
Sich 1 Rocket 3.5 17:46:47 10° N 17:51:14 83° E 17:55:43 10° S
Cosmos 1763 Rocket 4.3 17:47:53 10° NNW 17:52:55 56° WSW 17:57:53 10° S
AQUARIUS 4.5 17:49:58 10° S 17:54:26 71° WSW 17:58:56 10° NNW
Cosmos 2369 Rocket 3.6 17:52:31 10° SE 17:56:03 17° E 17:57:34 16° E
Meteor 1-10 Rocket 4.2 17:50:48 10° S 17:56:26 84° E 18:02:13 10° N
Cosmos 44 4.1 17:52:54 10° N 17:57:03 28° ENE 18:01:21 10° ESE
Cosmos 1833 Rocket 2.8 17:52:29 10° N 17:57:56 50° ENE 18:03:22 10° SE
CORIOLIS 4.3 17:55:12 10° S 18:00:38 79° WSW 18:06:06 10° NNW
MTI 3.9 17:58:15 10° N 18:01:28 74° WNW 18:04:41 10° SSW
Cosmos 2297 4.4 17:57:02 10° SW 18:02:37 56° WNW 18:08:16 10° N
ALOS 2.8 18:03:17 10° SE 18:07:32 36° ENE 18:11:47 10° N
Cosmos 1513 Rocket 4.5 18:01:24 10° S 18:07:42 81° E 18:13:57 10° N
Cosmos 1782 Rocket 3.5 18:05:12 10° N 18:09:34 87° W 18:13:56 10° S
YAOGAN 1 2.5 18:05:36 10° SSE 18:09:54 90° ESE 18:14:15 10° NNW
Cosmos 405 3.5 18:07:14 10° N 18:10:36 37° E 18:13:57 10° SSE
SL-27 R/B 3.6 18:08:56 10° NNW 18:12:09 44° WSW 18:15:22 10° S
Cosmos 540 Rocket 3.3 18:08:22 10° NNW 18:13:34 78° ENE 18:18:41 10° SSE
SMAP 4.5 18:09:33 10° S 18:13:54 41° W 18:18:18 10° NNW
Tiangong 1 1.9 18:12:54 10° W 18:15:16 31° NNW 18:15:53 27° N
Cosmos 968 Rocket 3.4 18:10:14 10° S 18:15:22 74° ESE 18:20:34 10° NNE
COSMO-SKYMED 1 2.8 18:12:11 10° N 18:16:30 70° WNW 18:20:48 10° SSW
Cosmos 1441 Rocket 3.3 18:15:57 10° S 18:19:54 80° W 18:23:50 10° N
USA 234 3.3 18:14:25 14° NE 18:20:11 85° NW 18:26:43 10° SW
Cosmos 1943 Rocket 3.8 18:17:04 10° SE 18:19:04 15° ESE 18:19:04 15° ESE
Cosmos 2084 Rocket 4.1 18:18:53 10° S 18:22:57 35° ESE 18:23:39 33° E
CZ-4C R/B 3.4 18:21:52 10° NNW 18:28:42 39° NE 18:32:49 24° ESE
METEOR-M 4.4 18:25:43 10° S 18:31:01 72° WSW 18:36:21 10° NNW
Meteor 1-11 Rocket 3.7 18:27:12 10° N 18:32:58 66° E 18:38:35 10° SSE
Centaur D AC-29 3.2 18:34:05 10° W 18:38:07 22° SSW 18:40:36 12° SSE
ERS-2 3.3 18:35:33 10° S 18:39:03 44° W 18:42:35 10° NNW
Cosmos 1634 Rocket 4.2 18:34:22 10° SSE 18:40:09 44° E 18:42:05 34° NE
Nadezhda 4 Rocket 3.8 18:36:12 10° N 18:42:18 69° E 18:48:23 10° SSE
CZ-4 R/B 4.1 18:39:49 10° SW 18:42:40 20° W 18:45:31 10° NW
NOSS 3-1 (C) 3.7 18:38:59 10° S 18:43:57 37° ESE 18:43:57 37° ESE
Cosmos 2151 Rocket 3.4 18:40:24 10° N 18:44:48 70° E 18:49:13 10° SSE
Meteor 2-20 4.4 18:40:47 10° N 18:46:53 84° W 18:52:56 10° S
OAO 3 Rocket 3.4 18:43:07 10° W 18:47:58 59° N 18:48:44 52° NNE
Gblst 52 Del rocket 4.4 18:43:49 10° SW 18:49:18 68° NW 18:51:35 37° NNE
SEDSat Delta rocket 3.8 18:46:17 10° SW 18:49:49 34° SSE 18:49:49 34° SSE
Cosmos 2082 Rocket 2.9 18:44:58 10° NNW 18:50:28 53° WSW 18:55:55 10° S
Timation 2 Rocket 3.9 18:54:26 10° NNW 19:01:06 67° ENE 19:03:17 42° SE
Cosmos 1092 Rocket 3.8 18:55:18 10° N 19:01:27 68° E 19:07:36 10° SSE
Centaur D AC-28 3.8 18:56:06 10° W 19:01:32 76° S 19:11:47 32° E
Centaur D AC-28 3.8 18:56:06 10° W 19:01:33 76° S 19:11:47 32° E
Centaur D AC-28 3.8 18:56:07 10° W 19:01:33 76° S 19:11:47 32° E
Centaur D AC-28 3.8 18:56:06 10° W 19:01:33 76° S 19:11:48 32° E
Centaur D AC-28 3.8 18:56:06 10° W 19:01:33 76° S 19:11:45 32° E
Celestis-02/Orion 38 4.5 19:01:15 54° NNE 19:02:29 86° WNW 19:07:43 10° SSW
USA 229 DEB 4.0 19:00:03 10° SW 19:06:42 63° WNW 19:10:13 30° NNE
Cosmos 1674 Rocket 3.9 19:02:27 10° SSW 19:06:48 63° W 19:07:04 61° WNW
USA 229 4.0 19:00:09 10° SW 19:06:48 64° WNW 19:10:16 30° NNE
MOS 1-B Rocket 4.4 19:02:03 10° SSE 19:09:00 66° ENE 19:17:13 10° N
NOSS 3-1 (A) 4.3 19:05:17 10° S 19:08:16 29° SSE 19:08:16 29° SSE
FengYun 1-2 T 4.1 19:08:10 10° SSE 19:14:02 79° N 19:19:15 10° NNW
ISS -1.0 19:14:12 10° WSW 19:15:23 19° W 19:15:23 19° W
Cosmos 44 Rocket 4.2 19:14:22 10° NW 19:19:05 47° WSW 19:21:07 30° SSW
Cosmos 2142 Rocket 4.3 19:13:28 10° S 19:19:48 86° E 19:20:16 78° NNE
Cosmos 2369 Rocket 3.0 19:34:11 10° SW 19:39:26 48° WNW 19:39:26 48° WNW
Cosmos 1943 Rocket 4.1 19:58:25 10° SW 20:00:40 24° SW 20:00:40 24° SW
CZ-4C R/B 3.9 20:10:17 10° NW 20:17:23 43° WSW 20:18:12 42° SW
